Flag for Macedonia, Republic of Weather past 2 weeks in Skopje, Macedonia, Republic of

48 °F

Passing clouds.

Feels Like: 48 °F
Forecast: 55 / 69 °F
Wind: No wind

Location: Skopje-Petrovec

Current Time: Oct 14, 2015 at 4:55:14 AM

Latest Report: Oct 14, 2015 at 4:30 AM

Visibility: N/A

Pressure: 30.12 "Hg

Humidity: 94%

Dew point: 46 °F

Location of SkopjeLocation

Historic Weather in Skopje — Graph


Skopje temperature yesterday

Maximum temperature yesterday: 66 °F (at 3:00 PM)
Minimum temperature yesterday: 46 °F (at 5:30 AM)
Average temperature yesterday: 55 °F

Past Weeks' High & Low Weather Summary

High79 °F (Oct 4, 2:30 PM)100% (Oct 3, 5:30 AM)30.39 "Hg (Oct 3, 5:30 AM)
Low43 °F (Oct 3, 5:30 AM)35% (Oct 2, 4:00 PM)29.62 "Hg (Oct 11, 1:30 PM)
Average60 °F77%30.07 "Hg
* Reported Sep 29 3:00 AM — Oct 14 3:30 AM, Skopje, Weather by CustomWeather, © 2015

Note: Actual official high and low records may vary slightly from our data, if they occured in-between our weather recording intervals... More about our weather records


Skopje weather history for previous 24 hours

Time TempWeatherWind HumidityBarometerVisibility
3:30 AM
Wed, Oct 14
48 °FPassing clouds.No wind94%30.12 "Hg10 mi
2:30 AM48 °FClear.2 mph94%30.12 "Hg10 mi
1:30 AM48 °FClear.3 mph94%30.12 "Hg10 mi
1:00 AM46 °FClear.1 mph93%30.15 "Hg10 mi
12:30 AM48 °FClear.2 mph94%30.12 "Hg10 mi
12:00 AM48 °FClear.2 mph94%30.12 "Hg10 mi
11:30 PM
Tue, Oct 13
48 °FClear.1 mph94%30.12 "Hg10 mi
11:00 PM50 °FClear.No wind88%30.12 "Hg10 mi
10:30 PM50 °FClear.2 mph88%30.12 "Hg10 mi
10:00 PM50 °FClear.2 mph88%30.12 "Hg10 mi
9:30 PM50 °FClear.No wind88%30.12 "Hg10 mi
9:00 PM50 °FClear.No wind88%30.12 "Hg10 mi
8:30 PM52 °FClear.No wind88%30.12 "Hg10 mi
8:00 PM52 °FClear.2 mph88%30.09 "Hg10 mi
7:30 PM54 °FClear.2 mph88%30.09 "Hg10 mi
7:00 PM55 °FClear.No wind88%30.09 "Hg10 mi
6:30 PM57 °FSunny.2 mph77%30.09 "Hg10 mi
6:00 PM61 °FSunny.2 mph68%30.07 "Hg10 mi
5:30 PM64 °FSunny.2 mph60%30.07 "Hg10 mi
5:00 PM66 °FSunny.No wind49%30.07 "Hg10 mi
4:30 PM66 °FSunny.No wind49%30.09 "Hg10 mi
4:00 PM66 °FSunny.No wind49%30.09 "Hg10 mi
3:30 PM66 °FSunny.No wind49%30.09 "Hg10 mi
3:00 PM66 °FSunny.No wind52%30.09 "Hg10 mi
2:30 PM64 °FSunny.No wind56%30.09 "Hg10 mi
2:00 PM64 °FSunny.No wind56%30.12 "Hg10 mi
1:30 PM64 °FSunny.2 mph56%30.12 "Hg10 mi
1:00 PM63 °FSunny.2 mph59%30.12 "Hg10 mi
12:30 PM63 °FSunny.2 mph59%30.12 "Hg10 mi
12:00 PM61 °FPassing clouds.2 mph63%30.15 "HgN/A
11:30 AM59 °FPassing clouds.3 mph68%30.15 "HgN/A
11:00 AM57 °FPassing clouds.3 mph72%30.15 "HgN/A
10:30 AM55 °FScattered clouds.2 mph77%30.15 "HgN/A
10:00 AM55 °FScattered clouds.2 mph72%30.15 "HgN/A
9:30 AM54 °FPartly sunny.7 mph77%30.15 "HgN/A
9:00 AM52 °FPartly sunny.5 mph82%30.15 "HgN/A
8:30 AM50 °FPartly sunny.5 mph82%30.15 "HgN/A
8:00 AM48 °FPartly sunny.6 mph87%30.15 "HgN/A
7:30 AM48 °FPassing clouds.8 mph87%30.15 "HgN/A
7:00 AM48 °FPassing clouds.9 mph82%30.12 "HgN/A
6:30 AM48 °FPassing clouds.2 mph82%30.12 "HgN/A
6:00 AM48 °FPassing clouds.5 mph82%30.12 "HgN/A
5:30 AM46 °FPassing clouds.2 mph93%30.12 "HgN/A
5:00 AM48 °FPassing clouds.5 mph82%30.12 "HgN/A
4:30 AM48 °FClear.5 mph87%30.12 "Hg10 mi
4:00 AM48 °FClear.7 mph87%30.12 "Hg10 mi
Weather by CustomWeather, © 2015

See weather overviewHow to use our weather pages